Pine Bluff, AR

4:52 PM CST on February 13, 2016 (GMT -0600)
Grider

Weather History for KPBF - July, 2013

Change the Weather History Date:

Tuesday, July 30, 2013

  Actual Average Record
Temperature  
Mean Temperature 83 °F 82 °F  
Max Temperature 90 °F 93 °F 107 °F (1986)
Min Temperature 75 °F 72 °F 63 °F (2014)
Degree Days  
Heating Degree Days 0 0  
Month to date heating degree days 0 0  
Since 1 June heating degree days 0 0  
Since 1 July heating degree days 0 0  
Cooling Degree Days 18 17  
Month to date cooling degree days 452 509  
Year to date cooling degree days 1140 1238  
Since 1 June cooling degree days 873 931  
Growing Degree Days 32 (Base 50)    
Moisture  
Dew Point 72 °F    
Average Humidity 72    
Maximum Humidity 94    
Minimum Humidity 50    
Precipitation  
Precipitation T in 0.12 in 2.61 in (2009)
Month to date precipitation 0.90 3.82  
Year to date precipitation 30.32 30.60  
Snow  
Snow 0.00 in 0.00 in - ()
Month to date snowfall 0.0 0.0  
Since 1 June snowfall 0.0 0.0  
Since 1 July snowfall 0.0 0.0  
Snow Depth 0.00 in    
Sea Level Pressure  
Sea Level Pressure 30.06 in    
Wind  
Wind Speed 5 mph (SSW)    
Max Wind Speed 15 mph    
Max Gust Speed 20 mph    
Visibility 10 miles    
Events Rain    
T = Trace of Precipitation, MM = Missing Value Source: NWS Daily Summary

Daily Weather History Graph

Daily Weather History Graph

Search for Another Location

Airport or City:

Trip Planner

Search our weather history database for the weather conditions in past years. The results will help you decide how hot, cold, wet, or windy it might be!

Date:

Astronomy

Jul. 30, 2013 Rise Set
Actual Time 6:17 AM CDT 8:10 PM CDT
Civil Twilight 5:49 AM CDT 8:37 PM CDT
Nautical Twilight 5:16 AM CDT 9:11 PM CDT
Astronomical Twilight 4:40 AM CDT 9:46 PM CDT
Moon 12:33 AM CDT (7/30) 2:31 PM CDT (7/30)
Length of Visible Light 14h 47m
Length of Day
13h 52m
Last Quarter, 41% of the Moon is Illuminated
Jul 30
Last Quarter
Aug 6
New
Aug 14
First Quarter
Aug 20
Full
Aug 28
Last Quarter

Hourly Weather History & Observations

Time (CDT) Temp. Heat Index Dew Point Humidity Pressure Visibility Wind Dir Wind Speed Gust Speed Precip Events Conditions
12:53 AM 75.9 °F - 73.0 °F 91% 30.06 in 10.0 mi ESE 5.8 mph - N/A   Clear
1:53 AM 75.9 °F - 73.0 °F 91% 30.06 in 10.0 mi Calm Calm - N/A   Mostly Cloudy
2:53 AM 75.9 °F - 73.0 °F 91% 30.06 in 10.0 mi ESE 3.5 mph - N/A   Partly Cloudy
3:53 AM 75.0 °F - 73.0 °F 94% 30.05 in 9.0 mi SE 3.5 mph - N/A   Clear
4:53 AM 75.0 °F - 73.0 °F 94% 30.06 in 8.0 mi Calm Calm - N/A   Clear
5:53 AM 75.0 °F - 73.0 °F 94% 30.09 in 9.0 mi Calm Calm - N/A   Mostly Cloudy
6:53 AM 75.9 °F - 72.0 °F 87% 30.10 in 10.0 mi South 4.6 mph - N/A   Mostly Cloudy
7:53 AM 77.0 °F - 70.0 °F 79% 30.10 in 10.0 mi SSW 6.9 mph - N/A   Partly Cloudy
8:53 AM 80.1 °F 83.2 °F 70.0 °F 71% 30.11 in 10.0 mi SW 8.1 mph - N/A   Clear
9:53 AM 82.0 °F 85.9 °F 70.0 °F 67% 30.10 in 10.0 mi SW 10.4 mph 19.6 mph N/A   Clear
10:53 AM 82.0 °F 85.5 °F 69.1 °F 65% 30.10 in 10.0 mi SW 10.4 mph - N/A   Clear
11:53 AM 82.9 °F 87.5 °F 71.1 °F 67% 30.10 in 10.0 mi SW 6.9 mph - N/A   Clear
12:53 PM 84.0 °F 89.0 °F 71.1 °F 65% 30.08 in 10.0 mi SSW 9.2 mph - 0.00 in Rain Light Rain
1:53 PM 86.0 °F 92.2 °F 72.0 °F 63% 30.06 in 10.0 mi SSW 8.1 mph - N/A   Partly Cloudy
2:53 PM 89.1 °F 92.9 °F 68.0 °F 50% 30.05 in 10.0 mi SSW 13.8 mph - N/A   Partly Cloudy
3:53 PM 89.1 °F 93.7 °F 69.1 °F 52% 30.04 in 10.0 mi SW 8.1 mph - N/A   Overcast
4:53 PM 88.0 °F 92.9 °F 70.0 °F 55% 30.04 in 10.0 mi SW 9.2 mph - N/A   Clear
5:53 PM 86.0 °F 92.2 °F 72.0 °F 63% 30.03 in 10.0 mi SW 4.6 mph - N/A   Scattered Clouds
6:53 PM 84.9 °F 90.7 °F 72.0 °F 65% 30.02 in 10.0 mi SSW 3.5 mph - N/A   Clear
7:53 PM 82.9 °F 88.0 °F 72.0 °F 69% 30.01 in 10.0 mi Calm Calm - N/A   Clear
8:53 PM 80.1 °F 84.2 °F 73.0 °F 79% 30.01 in 10.0 mi Calm Calm - N/A   Clear
9:53 PM 79.0 °F - 73.0 °F 82% 30.02 in 10.0 mi SE 3.5 mph - N/A   Overcast
10:53 PM 78.1 °F - 73.0 °F 84% 30.03 in 10.0 mi East 3.5 mph - N/A   Scattered Clouds
11:53 PM 77.0 °F - 72.0 °F 84% 30.03 in 10.0 mi Calm Calm - N/A   Partly Cloudy